sat.trackr.live / text

‹ back to catalog

STARLINK-32139

NORAD 61510 · 2024-183B

PAYLOAD ACTIVE UNKNOWN

§ Identity

Operator
Country
US
Launch date
2024-10-15
Launch site
AFETR
Launch vehicle
Mass (kg)
RCS (m²)

Purposes: comms

External: N2YO · Heavens-Above · Gunter

§ Orbital elements

Epoch: 2026-09-21T10:30:59.177952Z

Period
94.01 min
Inclination
53.1612°
Eccentricity
0.0001476
Mean motion
15.31706405 rev/d
Perigee alt
469.7 km
Apogee alt
471.7 km
Semi-major
6,848.9 km
B*
-1.5662e-4
RAAN
311.7186°
Arg perigee
78.7057°
Mean anomaly
281.4110°
Rev number
10,964

§ Raw data

STARLINK-321391 61510U 24183B   26264.43818493 -.00005223  00000+0 -15662-3 0  99972 61510  53.1612 311.7186 0001476  78.7057 281.4110 15.31706405109641

JSON: /api/v1/satellites/61510 · /tle

For live sub-satellite position, see the globe view (requires WebGL).

§ Visibility from observer

Set your observer location to see the next 7 days of passes ≥ 10°. The values pass through the URL so the page stays shareable.

No JS? Fill the form by hand. The geolocation button needs JavaScript.